Regional Weather Roundup
Issued by NWS

Home | Current Version | Previous Version | Graphics & Text | Print | Product List | Glossary On
Versions: 1 2 3 4 5 6 7 8 9 10 11 12 13 14 15 16 17 18 19 20 21 22 23 24 25 26 27 28 29 30 31 32 33 34 35 36 37 38 39 40 41 42 43 44 45 46 47 48 49 50
000
ASUS43 KLOT 281009
RWRIL

ILLINOIS REGIONAL WEATHER ROUNDUP
NATIONAL WEATHER SERVICE CHICAGO/ROMEOVILLE IL
500 AM CDT FRI APR 28 2017

NOTE: "FAIR" INDICATES FEW OR NO CLOUDS BELOW 12,000 FEET WITH NO
SIGNIFICANT WEATHER AND/OR OBSTRUCTIONS TO VISIBILITY.

* THESE STATIONS ARE NOT UNDER NWS QUALITY CONTROL. THEY ALSO MAY NOT
  REPORT WEATHER SUCH AS PRECIPITATION OR FOG.

ILZ001-002-007-009-015-016-024-281100-
NORTHWEST ILLINOIS

CITY           SKY/WX    TMP DP  RH WIND       PRES   REMARKS
MOLINE         CLOUDY    40  35  83 CALM      29.88R
STERLING*      PTCLDY    37  35  92 CALM      29.90R
SAVANNA*       PTCLDY    35  32  90 N3        29.88R
$$

ILZ003-004-008-010-011-017-018-281100-
NORTH CENTRAL ILLINOIS

CITY           SKY/WX    TMP DP  RH WIND       PRES   REMARKS
ROCKFORD       CLOUDY    38  31  76 CALM      29.88S
FREEPORT*      PTCLDY    34  31  89 NW6       29.88F WCI  28
ROCHELLE*      CLOUDY    38  35  89 CALM      29.89R
DE KALB*       CLOUDY    38  35  87 CALM      29.88R
PERU*          CLOUDY    41  36  83 N3        29.90R
$$

ILZ005-006-012>014-019>023-281100-
NORTHEAST ILLINOIS

CITY           SKY/WX    TMP DP  RH WIND       PRES   REMARKS
CHICAGO-OHARE  CLOUDY    42  34  73 NW7       29.87R
CHICAGO-MIDWAY CLOUDY    44  38  79 NW7       29.88R
AURORA         CLOUDY    40  37  89 CALM      29.89R
LANSING*       CLOUDY    43  43  98 N3        29.88R
JOLIET*        CLOUDY    44  42  95 N3        29.89R
WAUKEGAN       PTCLDY    40  32  73 CALM      29.86F
DUPAGE AIRPORT CLOUDY    39  38  96 CALM      29.88R
KANKAKEE*      PTCLDY    42  40  92 CALM      29.91R
WHEELING       PTCLDY    41  36  82 CALM      29.89R
MORRIS*        CLOUDY    42  40  91 CALM      29.88R
ROMEOVILLE*    CLOUDY    41  40  96 N7        29.89R
NORTHERLY ISL    N/A     45  37  73 W8          N/A
$$

LMZ740>746-281100-
SOUTHERN LAKE MICHIGAN

STATION/POSITION SKY/WX   TEMP    WIND        PRES    VSBY  WAVE
                          AIR SEA DIR/SP/G                  HT/PER
                          (F)     (DEG/KT/KT) (MB)    (MI)  (FT/S)
SOUTHERN BUOY              42 41  250/ 10/ 12 1012.2          2/ 4
HARRISON CRIB              45     320/  8/  9   N/A
BURNHAM HARBOR             45     250/  6/  8   N/A
CALUMET HARBOR             44     300/  2/  4 1011.2R
BURNS HARBOR               48     240/  3/  4 1012.2F
MICHIGAN CITY              45      40/  4/  5   N/A
MICHIGAN CITY 6N           45 46                N/A           1
ST. JOSEPH                 46 48  120/  4/  4 1012.4          1/ 4
$$

ILZ025>027-034>036-040-047-049-050-058-095>099-281100-
WEST-CENTRAL ILLINOIS

CITY           SKY/WX    TMP DP  RH WIND       PRES   REMARKS
QUINCY         PTCLDY    49  44  83 E6        29.83F
GALESBURG*     PTCLDY    40  38  91 NE6       29.88R
MACOMB*        CLOUDY    46  45  95 N6        29.88S
JACKSONVILLE*  CLOUDY    50  47  88 SE8       29.85F
PITTSFIELD*    CLOUDY    51  48  89 E5        29.85S
$$

ILZ028>032-037-038-041>044-048-051>054-059>061-281100-
CENTRAL ILLINOIS

CITY           SKY/WX    TMP DP  RH WIND       PRES   REMARKS
PONTIAC        CLOUDY    48  46  93 S12       29.90R
BLOOMINGTON    CLOUDY    46  44  93 S10       29.91R
DECATUR        CLOUDY    48  47  96 SE3       29.92R
PEORIA         CLOUDY    49  46  90 S6        29.88R
LACON*         CLOUDY    43  43  98 CALM      29.90R
LINCOLN*       CLOUDY    49  47  93 S3        29.89F
SPRINGFIELD    CLOUDY    52  47  83 E8        29.87F
TAYLORVILLE    CLOUDY    48  47  93 E5        29.88F
$$

ILZ033-039-045-046-055>057-062-063-281100-
EAST-CENTRAL ILLINOIS

CITY           SKY/WX    TMP DP  RH WIND       PRES   REMARKS
CHAMPAIGN      CLOUDY    48  44  86 SE6       29.93R
RANTOUL*       MOCLDY    48  46  91 S6        29.93R
MATTOON        CLOUDY    48  45  89 E6        29.92R
PARIS*         MOCLDY    47  46  93 SW3       29.96R
$$

ILZ079-100>102-281100-
SOUTHWEST ILLINOIS

CITY           SKY/WX    TMP DP  RH WIND       PRES   REMARKS
ALTON          CLOUDY    52  49  89 NE5       29.83F
BELLEVILLE     MOCLDY    53  53 100 NE6       29.82R
CAHOKIA*       CLOUDY    54  49  83 SE3       29.84R
SPARTA*        MOCLDY    54  48  82 S8        29.88R
$$

ILZ064>066-069>071-074>076-080>082-084>086-088>090-092>094-281100-
SOUTH-CENTRAL ILLINOIS

CITY           SKY/WX    TMP DP  RH WIND       PRES   REMARKS
CARBONDALE     CLOUDY    53  51  93 SE10      29.87S
CAIRO*         CLOUDY    56  52  87 E6        29.87R
EFFINGHAM*     CLOUDY    49  49 100 CALM      29.93S
MARION         CLOUDY    54  54 100 CALM      29.89R
MT. VERNON     CLOUDY    52  49  89 CALM      29.89R
CENTRALIA*     CLOUDY    52  50  91 SE5       29.88R
SALEM*         CLOUDY    52  48  86 E7        29.84F
METROPOLIS*    MOCLDY    54  51  88 CALM      29.89S
$$

ILZ067-068-072-073-078-083-087-091-281100-
SOUTHEAST ILLINOIS

CITY           SKY/WX    TMP DP  RH WIND       PRES   REMARKS
LAWRENCEVILLE  CLOUDY    49  47  93 S5        29.93R
FLORA*         CLOUDY    51  49  90 E5        29.90S
FAIRFIELD*     CLOUDY    52  49  88 SE5       29.89R
HARRISBURG*    CLOUDY    53  50  92 E6        29.91R
ROBINSON*      CLOUDY    47  45  92 S3        29.94R
CARMI*         CLOUDY    51  49  93 SE9       29.91R
$$

ABBREVIATIONS USED IN REMARKS
   TC - TEMPERATURE IN CELSIUS
  WCI - WIND CHILL INDEX
   HX - HEAT INDEX
  VSB - VISIBILITY
$$




USA.gov is the U.S. government's official web portal to all federal, state and local government web resources and services.